This demonstration page uses our WeatherBlox Daily Observations layout. Learn more.

39.29038, -76.61219

Hourly Observations for July 25, 2017

Temp ( °F °C ) Dew Point ( °F °C ) Humidity (%) Winds ( mph kmh ) Pressure ( in mb ) Visibility ( mi km ) Precip ( " mm )
12:54 am 00:54 undefined 78 25.6 70 21.1 76 76 undefined N/A 29.91 1013 N/A 0 0
1:54 am 01:54 undefined 76 24.4 68 20 77 77 undefined N/A 29.94 1014 N/A 0 0
2:54 am 02:54 undefined 75 23.9 65 18.3 71 71 undefined N/A 29.94 1014 N/A 0 0
3:54 am 03:54 undefined 74 23.3 64 17.8 71 71 undefined N/A 29.94 1014 N/A 0 0
4:54 am 04:54 undefined 73 22.8 60 15.6 64 64 undefined N/A 29.97 1015 N/A 0 0
5:54 am 05:54 undefined 72 22.2 58 14.4 61 61 undefined N/A 30 1016 N/A 0 0
6:54 am 06:54 undefined 72 22.2 58 14.4 61 61 undefined N/A 30 1016 N/A 0 0
7:54 am 07:54 undefined 73 22.8 57 13.9 57 57 undefined N/A 30.03 1017 N/A 0 0
8:54 am 08:54 undefined 74 23.3 58 14.4 57 57 undefined N/A 30.03 1017 N/A 0 0
9:54 am 09:54 undefined 75 23.9 60 15.6 60 60 undefined N/A 30.06 1018 N/A 0 0
10:54 am 10:54 undefined 77 25 60 15.6 56 56 undefined N/A 30.06 1018 N/A 0 0
11:54 am 11:54 undefined 78 25.6 60 15.6 54 54 undefined N/A 30.06 1018 N/A 0 0
12:54 pm 12:54 undefined 79 26.1 62 16.7 56 56 undefined N/A 30.09 1019 N/A 0 0
1:54 pm 13:54 undefined 79 26.1 60 15.6 52 52 undefined N/A 30.09 1019 N/A 0 0
2:54 pm 14:54 undefined 80 26.7 61 16.1 52 52 undefined N/A 30.09 1019 N/A 0 0
3:54 pm 15:54 undefined 81 27.2 60 15.6 49 49 undefined N/A 30.09 1019 N/A 0 0
4:54 pm 16:54 undefined 81 27.2 60 15.6 49 49 undefined N/A 30.09 1019 N/A 0 0
5:54 pm 17:54 undefined 80 26.7 61 16.1 52 52 undefined N/A 30.09 1019 N/A 0 0
6:54 pm 18:54 undefined 79 26.1 60 15.6 52 52 undefined N/A 30.12 1020 N/A 0 0
7:54 pm 19:54 undefined 78 25.6 62 16.7 58 58 undefined N/A 30.12 1020 N/A 0 0
8:54 pm 20:54 undefined 77 25 61 16.1 58 58 undefined N/A 30.15 1021 N/A 0 0
9:54 pm 21:54 undefined 76 24.4 60 15.6 58 58 undefined N/A 30.15 1021 N/A 0 0
10:54 pm 22:54 undefined 76 24.4 61 16.1 60 60 undefined N/A 30.18 1022 N/A 0 0
11:54 pm 23:54 undefined 75 23.9 61 16.1 62 62 undefined N/A 30.18 1022 N/A 0 0

Powered by AerisWeather